QPF
0.00 0.00 0.00 0.00 0.00 0.00 0.00 0.00 0.00 0.01 0.01 0.01 0.01 0.01 0.01 0.01 0.02 0.02 0.02 0.02 0.02 0.01 0.01 0.02 0.02 0.02 0.02 0.01 0.00 0.01 0.01 0.01 0.02 0.01 0.01 0.01 0.02 0.02 0.03 0.05 0.12 0.14 0.14
0.00 0.00 0.00 0.00 0.00 0.00 0.00 0.00 0.00 0.00 0.01 0.01 0.01 0.01 0.01 0.01 0.02 0.02 0.02 0.02 0.02 0.02 0.02 0.02 0.02 0.02 0.02 0.02 0.01 0.01 0.01 0.02 0.02 0.02 0.01 0.01 0.01 0.01 0.02 0.04 0.08 0.13 0.16
0.00 0.00 0.00 0.00 0.00 0.00 0.00 0.00 0.00 0.00 0.01 0.01 0.01 0.01 0.01 0.01 0.01 0.02 0.02 0.02 0.02 0.02 0.02 0.02 0.02 0.03 0.03 0.03 0.03 0.02 0.02 0.01 0.02 0.02 0.01 0.01 0.01 0.01 0.02 0.03 0.05 0.10 0.14
0.00 0.00 0.00 0.00 0.00 0.00 0.00 0.00 0.00 0.00 0.01 0.01 0.01 0.01 0.01 0.01 0.01 0.01 0.02 0.02 0.02 0.02 0.03 0.03 0.03 0.03 0.03 0.04 0.04 0.03 0.03 0.02 0.02 0.02 0.01 0.01 0.01 0.01 0.02 0.03 0.05 0.08 0.10
0.00 0.00 0.00 0.00 0.00 0.00 0.00 0.00 0.00 0.00 0.00 0.00 0.00 0.00 0.01 0.01 0.01 0.01 0.01 0.01 0.01 0.02 0.02 0.03 0.03 0.03 0.02 0.02 0.01 0.02 0.03 0.03 0.03 0.03 0.02 0.02 0.02 0.02 0.02 0.03 0.06 0.10 0.11
0.00 0.00 0.00 0.00 0.00 0.00 0.00 0.00 0.00 0.00 0.00 0.00 0.00 0.01 0.01 0.00 0.00 0.00 0.00 0.00 0.00 0.01 0.02 0.03 0.03 0.02 0.01 0.00 0.00 0.00 0.00 0.01 0.01 0.02 0.02 0.02 0.03 0.04 0.04 0.04 0.05 0.10 0.13
0.00 0.00 0.00 0.00 0.00 0.00 0.00 0.00 0.00 0.00 0.00 0.00 0.01 0.01 0.01 0.02 0.00 0.00 0.00 0.00 0.00 0.00 0.01 0.03 0.02 0.01 0.03 0.04 0.04 0.02 0.01 0.00 0.00 0.00 0.01 0.01 0.02 0.05 0.07 0.06 0.06 0.10 0.14
0.00 0.00 0.00 0.00 0.00 0.00 0.00 0.00 0.00 0.00 0.00 0.01 0.01 0.01 0.02 0.02 0.00 0.00 0.00 0.00 0.00 0.00 0.01 0.03 0.05 0.04 0.05 0.06 0.06 0.06 0.05 0.03 0.02 0.01 0.01 0.00 0.01 0.03 0.07 0.07 0.07 0.08 0.13
0.00 0.00 0.00 0.00 0.00 0.00 0.00 0.00 0.00 0.00 0.00 0.01 0.01 0.01 0.02 0.03 0.01 0.00 0.00 0.00 0.00 0.00 0.01 0.03 0.05 0.05 0.05 0.02 0.02 0.03 0.03 0.03 0.01 0.01 0.00 0.00 0.00 0.00 0.01 0.03 0.04 0.06 0.09
0.00 0.00 0.00 0.00 0.00 0.00 0.00 0.00 0.00 0.00 0.00 0.00 0.01 0.01 0.02 0.03 0.02 0.00 0.00 0.00 0.00 0.01 0.03 0.04 0.03 0.02 0.02 0.01 0.01 0.03 0.03 0.03 0.04 0.03 0.03 0.01 0.00 0.00 0.00 0.00 0.02 0.04 0.08
0.00 0.00 0.00 0.00 0.00 0.00 0.00 0.00 0.00 0.00 0.01 0.01 0.01 0.01 0.03 0.03 0.03 0.00 0.00 0.00 0.00 0.01 0.02 0.03 0.05 0.02 0.00 0.00 0.00 0.01 0.02 0.02 0.04 0.05 0.06 0.06 0.04 0.02 0.01 0.01 0.01 0.02 0.06
0.00 0.00 0.00 0.00 0.00 0.00 0.00 0.00 0.00 0.01 0.01 0.02 0.02 0.02 0.02 0.04 0.03 0.02 0.00 0.00 0.00 0.00 0.01 0.03 0.04 0.01 0.00 0.00 0.00 0.00 0.00 0.00 0.00 0.02 0.04 0.05 0.05 0.04 0.03 0.03 0.03 0.03 0.05
0.00 0.00 0.00 0.00 0.00 0.00 0.00 0.00 0.01 0.01 0.01 0.01 0.01 0.01 0.01 0.02 0.04 0.01 0.00 0.00 0.00 0.00 0.01 0.01 0.01 0.00 0.00 0.00 0.00 0.00 0.00 0.00 0.00 0.01 0.03 0.04 0.04 0.05 0.06 0.08 0.08 0.08 0.07
0.00 0.00 0.00 0.00 0.00 0.00 0.01 0.00 0.00 0.00 0.00 0.01 0.01 0.01 0.02 0.03 0.06 0.05 0.04 0.02 0.01 0.01 0.02 0.02 0.01 0.00 0.00 0.00 0.01 0.01 0.01 0.01 0.02 0.03 0.04 0.05 0.06 0.08 0.09 0.09 0.10 0.11 0.09
0.00 0.00 0.00 0.00 0.00 0.01 0.01 0.00 0.00 0.00 0.00 0.00 0.00 0.00 0.00 0.01 0.02 0.01 0.01 0.01 0.02 0.02 0.02 0.02 0.03 0.04 0.05 0.06 0.07 0.09 0.09 0.08 0.05 0.04 0.05 0.06 0.07 0.08 0.09 0.11 0.12 0.13 0.11
0.01 0.01 0.00 0.00 0.00 0.00 0.00 0.00 0.00 0.00 0.00 0.00 0.00 0.00 0.00 0.00 0.00 0.00 0.00 0.00 0.00 0.00 0.00 0.00 0.02 0.04 0.07 0.10 0.12 0.13 0.13 0.13 0.11 0.10 0.09 0.08 0.07 0.08 0.08 0.11 0.12 0.13 0.12
0.02 0.02 0.01 0.00 0.00 0.00 0.00 0.00 0.00 0.01 0.01 0.01 0.01 0.00 0.00 0.00 0.00 0.00 0.00 0.00 0.00 0.00 0.00 0.01 0.02 0.05 0.08 0.10 0.11 0.12 0.13 0.14 0.15 0.14 0.12 0.10 0.09 0.08 0.09 0.11 0.11 0.12 0.12
0.03 0.03 0.02 0.01 0.01 0.00 0.00 0.00 0.00 0.01 0.02 0.02 0.03 0.02 0.01 0.00 0.00 0.00 0.00 0.00 0.00 0.02 0.03 0.04 0.05 0.07 0.08 0.10 0.11 0.12 0.12 0.13 0.14 0.13 0.12 0.11 0.11 0.10 0.10 0.10 0.11 0.12 0.13
0.03 0.03 0.03 0.02 0.01 0.01 0.01 0.01 0.01 0.01 0.02 0.02 0.03 0.05 0.03 0.01 0.00 0.00 0.00 0.01 0.02 0.06 0.08 0.08 0.08 0.07 0.09 0.11 0.11 0.12 0.11 0.12 0.13 0.13 0.12 0.11 0.11 0.11 0.11 0.11 0.11 0.12 0.14
0.03 0.02 0.02 0.02 0.01 0.01 0.01 0.01 0.01 0.01 0.01 0.02 0.03 0.04 0.04 0.03 0.03 0.05 0.05 0.04 0.06 0.07 0.08 0.08 0.07 0.06 0.09 0.11 0.12 0.12 0.11 0.12 0.14 0.14 0.13 0.12 0.12 0.12 0.11 0.11 0.11 0.11 0.12
0.01 0.01 0.01 0.01 0.01 0.01 0.01 0.01 0.01 0.01 0.01 0.02 0.03 0.04 0.03 0.02 0.03 0.05 0.08 0.08 0.07 0.07 0.07 0.07 0.07 0.07 0.08 0.10 0.12 0.12 0.12 0.14 0.15 0.15 0.14 0.13 0.13 0.12 0.13 0.13 0.12 0.12 0.13
0.00 0.00 0.00 0.01 0.01 0.01 0.01 0.01 0.02 0.02 0.03 0.03 0.04 0.07 0.06 0.04 0.04 0.04 0.05 0.04 0.05 0.05 0.04 0.05 0.05 0.06 0.08 0.09 0.11 0.13 0.13 0.14 0.17 0.17 0.16 0.15 0.15 0.14 0.14 0.13 0.12 0.13 0.13
0.00 0.01 0.01 0.01 0.01 0.01 0.02 0.02 0.03 0.04 0.05 0.06 0.05 0.07 0.08 0.07 0.05 0.05 0.04 0.04 0.04 0.04 0.04 0.05 0.05 0.06 0.08 0.09 0.10 0.12 0.12 0.13 0.15 0.17 0.18 0.17 0.16 0.14 0.14 0.15 0.14 0.13 0.12
0.01 0.01 0.01 0.01 0.02 0.03 0.02 0.03 0.04 0.05 0.05 0.06 0.06 0.07 0.09 0.08 0.05 0.05 0.05 0.05 0.05 0.06 0.06 0.05 0.04 0.03 0.04 0.06 0.07 0.08 0.09 0.09 0.10 0.13 0.16 0.17 0.17 0.16 0.14 0.13 0.15 0.14 0.13
0.01 0.01 0.02 0.03 0.03 0.04 0.06 0.07 0.07 0.08 0.08 0.08 0.08 0.07 0.08 0.06 0.04 0.04 0.05 0.05 0.06 0.06 0.04 0.04 0.04 0.03 0.03 0.03 0.04 0.05 0.04 0.03 0.02 0.05 0.10 0.15 0.17 0.17 0.15 0.13 0.15 0.16 0.14
0.02 0.03 0.04 0.04 0.05 0.06 0.07 0.09 0.09 0.09 0.08 0.08 0.08 0.09 0.08 0.06 0.04 0.04 0.04 0.05 0.05 0.04 0.04 0.04 0.04 0.04 0.04 0.05 0.04 0.04 0.03 0.02 0.01 0.01 0.03 0.09 0.14 0.15 0.15 0.15 0.17 0.18 0.16
MSLP
1013.93 1014.32 1014.60 1014.77 1014.84 1014.81 1014.73 1014.62 1014.51 1014.43 1014.37 1014.34 1014.33 1014.31 1014.27 1014.21 1014.13 1014.04 1013.95 1013.88 1013.86 1013.89 1013.95 1014.05 1014.15 1014.24 1014.30 1014.30 1014.24 1014.13 1013.97 1013.77 1013.53 1013.27 1012.99 1012.69 1012.39 1012.09 1011.79 1011.52 1011.29 1011.13 1011.05
1013.74 1014.03 1014.24 1014.36 1014.40 1014.37 1014.31 1014.24 1014.18 1014.14 1014.11 1014.10 1014.09 1014.06 1014.01 1013.93 1013.84 1013.73 1013.63 1013.56 1013.52 1013.52 1013.56 1013.62 1013.68 1013.74 1013.77 1013.76 1013.72 1013.64 1013.54 1013.41 1013.26 1013.08 1012.87 1012.63 1012.35 1012.04 1011.71 1011.39 1011.09 1010.85 1010.68
1013.50 1013.71 1013.85 1013.92 1013.94 1013.93 1013.90 1013.88 1013.87 1013.87 1013.89 1013.91 1013.91 1013.89 1013.84 1013.75 1013.64 1013.52 1013.41 1013.32 1013.26 1013.23 1013.22 1013.23 1013.24 1013.24 1013.23 1013.20 1013.16 1013.11 1013.05 1012.99 1012.92 1012.82 1012.69 1012.50 1012.26 1011.97 1011.63 1011.27 1010.91 1010.60 1010.36
1013.23 1013.38 1013.48 1013.52 1013.53 1013.54 1013.54 1013.57 1013.60 1013.66 1013.71 1013.76 1013.78 1013.76 1013.71 1013.62 1013.50 1013.37 1013.25 1013.14 1013.04 1012.97 1012.91 1012.86 1012.80 1012.75 1012.69 1012.63 1012.58 1012.54 1012.53 1012.52 1012.51 1012.49 1012.43 1012.30 1012.10 1011.83 1011.49 1011.11 1010.73 1010.37 1010.08
1012.94 1013.07 1013.14 1013.19 1013.21 1013.23 1013.27 1013.33 1013.40 1013.48 1013.56 1013.62 1013.64 1013.63 1013.57 1013.47 1013.34 1013.20 1013.06 1012.92 1012.80 1012.68 1012.57 1012.46 1012.35 1012.24 1012.13 1012.05 1011.98 1011.95 1011.96 1012.00 1012.04 1012.08 1012.07 1012.00 1011.84 1011.60 1011.28 1010.91 1010.52 1010.14 1009.82
1012.62 1012.77 1012.86 1012.92 1012.97 1013.01 1013.07 1013.15 1013.23 1013.32 1013.40 1013.45 1013.46 1013.43 1013.35 1013.24 1013.10 1012.94 1012.78 1012.62 1012.47 1012.32 1012.17 1012.01 1011.86 1011.70 1011.56 1011.45 1011.37 1011.34 1011.36 1011.42 1011.50 1011.58 1011.61 1011.58 1011.46 1011.26 1010.97 1010.62 1010.24 1009.88 1009.56
1012.27 1012.47 1012.61 1012.71 1012.78 1012.85 1012.91 1012.99 1013.06 1013.13 1013.18 1013.20 1013.18 1013.12 1013.01 1012.88 1012.72 1012.55 1012.37 1012.20 1012.03 1011.86 1011.68 1011.50 1011.32 1011.14 1010.98 1010.85 1010.77 1010.73 1010.76 1010.82 1010.91 1011.00 1011.06 1011.05 1010.96 1010.79 1010.53 1010.23 1009.89 1009.57 1009.29
1011.88 1012.14 1012.34 1012.49 1012.59 1012.67 1012.73 1012.78 1012.82 1012.84 1012.85 1012.82 1012.75 1012.65 1012.52 1012.36 1012.19 1012.01 1011.83 1011.66 1011.48 1011.31 1011.13 1010.95 1010.77 1010.58 1010.41 1010.28 1010.19 1010.15 1010.16 1010.22 1010.29 1010.37 1010.42 1010.42 1010.34 1010.19 1009.98 1009.72 1009.44 1009.18 1008.96
1011.43 1011.77 1012.03 1012.22 1012.34 1012.42 1012.46 1012.48 1012.47 1012.44 1012.38 1012.30 1012.19 1012.05 1011.89 1011.72 1011.55 1011.37 1011.20 1011.04 1010.89 1010.73 1010.57 1010.40 1010.22 1010.05 1009.89 1009.76 1009.66 1009.61 1009.60 1009.63 1009.67 1009.72 1009.74 1009.72 1009.64 1009.50 1009.32 1009.11 1008.89 1008.71 1008.57
1010.93 1011.32 1011.63 1011.85 1011.98 1012.05 1012.06 1012.04 1011.98 1011.89 1011.78 1011.66 1011.51 1011.35 1011.19 1011.03 1010.86 1010.71 1010.57 1010.43 1010.30 1010.17 1010.03 1009.89 1009.73 1009.58 1009.43 1009.30 1009.19 1009.12 1009.08 1009.07 1009.07 1009.06 1009.04 1008.98 1008.88 1008.74 1008.58 1008.41 1008.27 1008.16 1008.11
1010.38 1010.80 1011.13 1011.35 1011.48 1011.53 1011.51 1011.44 1011.34 1011.21 1011.07 1010.93 1010.78 1010.63 1010.48 1010.34 1010.22 1010.10 1010.00 1009.90 1009.80 1009.69 1009.58 1009.45 1009.31 1009.17 1009.02 1008.89 1008.77 1008.67 1008.60 1008.54 1008.48 1008.42 1008.34 1008.23 1008.10 1007.96 1007.81 1007.68 1007.58 1007.54 1007.57
1009.81 1010.23 1010.54 1010.74 1010.85 1010.86 1010.81 1010.71 1010.59 1010.44 1010.30 1010.16 1010.04 1009.92 1009.83 1009.74 1009.67 1009.60 1009.54 1009.47 1009.40 1009.31 1009.20 1009.08 1008.94 1008.79 1008.64 1008.49 1008.35 1008.22 1008.10 1007.99 1007.89 1007.77 1007.64 1007.49 1007.33 1007.17 1007.03 1006.92 1006.87 1006.89 1006.99
1009.26 1009.62 1009.88 1010.04 1010.10 1010.09 1010.00 1009.89 1009.75 1009.62 1009.50 1009.40 1009.33 1009.28 1009.26 1009.24 1009.24 1009.22 1009.20 1009.16 1009.10 1009.00 1008.88 1008.74 1008.57 1008.40 1008.21 1008.03 1007.86 1007.70 1007.55 1007.40 1007.25 1007.10 1006.93 1006.75 1006.58 1006.41 1006.28 1006.19 1006.17 1006.23 1006.37
1008.75 1009.02 1009.20 1009.30 1009.30 1009.24 1009.13 1009.00 1008.87 1008.77 1008.69 1008.66 1008.67 1008.71 1008.77 1008.83 1008.89 1008.94 1008.95 1008.91 1008.84 1008.72 1008.56 1008.36 1008.15 1007.92 1007.69 1007.47 1007.26 1007.06 1006.88 1006.71 1006.54 1006.37 1006.20 1006.02 1005.85 1005.69 1005.57 1005.50 1005.50 1005.59 1005.77
1008.31 1008.46 1008.54 1008.55 1008.48 1008.37 1008.23 1008.10 1007.99 1007.92 1007.90 1007.94 1008.04 1008.17 1008.31 1008.46 1008.58 1008.67 1008.69 1008.65 1008.55 1008.38 1008.15 1007.89 1007.60 1007.30 1007.01 1006.74 1006.49 1006.27 1006.08 1005.90 1005.74 1005.59 1005.43 1005.28 1005.13 1005.01 1004.91 1004.87 1004.90 1005.00 1005.19
1007.95 1007.98 1007.94 1007.84 1007.70 1007.52 1007.35 1007.21 1007.11 1007.08 1007.12 1007.23 1007.40 1007.61 1007.83 1008.04 1008.21 1008.32 1008.35 1008.29 1008.14 1007.90 1007.61 1007.26 1006.89 1006.52 1006.16 1005.84 1005.56 1005.33 1005.14 1004.99 1004.86 1004.74 1004.64 1004.54 1004.44 1004.37 1004.32 1004.31 1004.36 1004.47 1004.67
1007.68 1007.57 1007.41 1007.20 1006.97 1006.73 1006.52 1006.35 1006.25 1006.24 1006.32 1006.48 1006.70 1006.97 1007.25 1007.51 1007.71 1007.83 1007.85 1007.76 1007.56 1007.27 1006.90 1006.48 1006.04 1005.60 1005.19 1004.84 1004.54 1004.31 1004.14 1004.02 1003.93 1003.88 1003.84 1003.81 1003.78 1003.77 1003.77 1003.80 1003.88 1004.01 1004.20
1007.48 1007.24 1006.95 1006.64 1006.32 1006.01 1005.74 1005.54 1005.42 1005.41 1005.50 1005.68 1005.93 1006.23 1006.54 1006.82 1007.03 1007.16 1007.17 1007.05 1006.82 1006.48 1006.06 1005.59 1005.10 1004.63 1004.19 1003.82 1003.52 1003.30 1003.15 1003.07 1003.05 1003.05 1003.08 1003.12 1003.16 1003.21 1003.26 1003.34 1003.44 1003.59 1003.79
1007.31 1006.96 1006.57 1006.16 1005.75 1005.37 1005.04 1004.78 1004.63 1004.59 1004.65 1004.82 1005.08 1005.38 1005.69 1005.97 1006.18 1006.30 1006.31 1006.18 1005.94 1005.59 1005.15 1004.67 1004.17 1003.69 1003.25 1002.89 1002.61 1002.41 1002.30 1002.26 1002.27 1002.33 1002.41 1002.50 1002.59 1002.69 1002.79 1002.89 1003.02 1003.19 1003.39
1007.15 1006.71 1006.24 1005.75 1005.26 1004.80 1004.40 1004.09 1003.88 1003.78 1003.81 1003.94 1004.16 1004.44 1004.73 1004.99 1005.20 1005.32 1005.33 1005.22 1004.99 1004.66 1004.26 1003.81 1003.34 1002.89 1002.49 1002.16 1001.91 1001.75 1001.66 1001.65 1001.69 1001.77 1001.87 1001.98 1002.10 1002.21 1002.33 1002.46 1002.60 1002.78 1002.99
1006.98 1006.48 1005.94 1005.39 1004.83 1004.31 1003.84 1003.46 1003.19 1003.04 1003.00 1003.07 1003.24 1003.47 1003.72 1003.96 1004.16 1004.28 1004.31 1004.23 1004.05 1003.78 1003.45 1003.07 1002.68 1002.31 1001.97 1001.70 1001.49 1001.36 1001.30 1001.29 1001.32 1001.39 1001.48 1001.58 1001.68 1001.78 1001.89 1002.01 1002.15 1002.33 1002.55
1006.79 1006.25 1005.67 1005.07 1004.47 1003.89 1003.37 1002.93 1002.59 1002.37 1002.27 1002.27 1002.38 1002.55 1002.75 1002.96 1003.15 1003.27 1003.33 1003.30 1003.19 1003.01 1002.78 1002.50 1002.22 1001.95 1001.71 1001.51 1001.35 1001.25 1001.20 1001.18 1001.19 1001.21 1001.25 1001.29 1001.34 1001.39 1001.45 1001.54 1001.67 1001.84 1002.06
1006.58 1006.02 1005.42 1004.79 1004.16 1003.55 1002.99 1002.50 1002.11 1001.83 1001.66 1001.60 1001.64 1001.75 1001.90 1002.08 1002.24 1002.38 1002.46 1002.49 1002.46 1002.38 1002.26 1002.11 1001.95 1001.80 1001.66 1001.54 1001.44 1001.37 1001.32 1001.27 1001.23 1001.19 1001.15 1001.11 1001.06 1001.04 1001.03 1001.07 1001.16 1001.30 1001.52
1006.36 1005.81 1005.20 1004.57 1003.92 1003.29 1002.71 1002.19 1001.76 1001.44 1001.22 1001.10 1001.08 1001.13 1001.23 1001.37 1001.51 1001.64 1001.75 1001.83 1001.88 1001.89 1001.88 1001.85 1001.81 1001.77 1001.74 1001.70 1001.66 1001.62 1001.56 1001.49 1001.39 1001.27 1001.14 1000.99 1000.85 1000.73 1000.64 1000.61 1000.64 1000.75 1000.96
1006.19 1005.64 1005.04 1004.41 1003.77 1003.14 1002.55 1002.02 1001.58 1001.23 1000.97 1000.81 1000.74 1000.74 1000.79 1000.89 1001.00 1001.12 1001.24 1001.35 1001.44 1001.53 1001.60 1001.68 1001.74 1001.80 1001.86 1001.89 1001.91 1001.89 1001.83 1001.73 1001.58 1001.39 1001.17 1000.92 1000.68 1000.47 1000.29 1000.18 1000.16 1000.23 1000.40
1006.10 1005.56 1004.97 1004.34 1003.71 1003.10 1002.52 1002.01 1001.57 1001.21 1000.94 1000.75 1000.64 1000.60 1000.61 1000.66 1000.74 1000.83 1000.93 1001.04 1001.16 1001.28 1001.42 1001.55 1001.69 1001.82 1001.94 1002.04 1002.09 1002.10 1002.04 1001.92 1001.73 1001.49 1001.19 1000.87 1000.55 1000.25 1000.00 999.82 999.73 999.75 999.89
Thickness
5720 5716 5711 5707 5703 5700 5695 5691 5687 5683 5679 5675 5671 5667 5663 5659 5655 5650 5645 5641 5637 5634 5632 5630 5628 5627 5626 5625 5626 5626 5627 5627 5627 5634 5640 5647 5651 5656 5661 5666 5670 5675 5680
5720 5715 5710 5705 5701 5697 5693 5690 5686 5681 5676 5672 5668 5663 5658 5654 5650 5644 5638 5635 5630 5626 5623 5621 5619 5618 5617 5616 5615 5615 5617 5618 5619 5621 5627 5633 5639 5645 5651 5656 5662 5668 5673
5721 5714 5709 5704 5700 5695 5691 5687 5682 5677 5673 5668 5663 5658 5652 5648 5643 5638 5632 5627 5623 5618 5615 5612 5610 5608 5607 5606 5606 5606 5607 5610 5612 5613 5617 5622 5628 5635 5640 5646 5653 5659 5665
5720 5714 5708 5703 5698 5694 5689 5684 5679 5674 5669 5664 5659 5653 5647 5642 5637 5632 5626 5621 5616 5612 5608 5605 5603 5601 5600 5599 5598 5598 5598 5599 5601 5603 5607 5612 5618 5625 5630 5634 5640 5649 5656
5717 5711 5706 5702 5697 5692 5687 5682 5676 5671 5666 5661 5655 5648 5642 5636 5632 5626 5619 5615 5610 5606 5602 5599 5597 5596 5595 5592 5592 5591 5590 5590 5591 5593 5597 5602 5608 5613 5618 5625 5631 5639 5647
5713 5708 5704 5699 5694 5688 5684 5679 5674 5668 5662 5656 5649 5643 5637 5632 5625 5617 5610 5605 5601 5598 5595 5593 5592 5590 5590 5589 5587 5585 5583 5582 5582 5583 5586 5590 5596 5602 5608 5614 5620 5626 5633
5710 5705 5701 5696 5690 5686 5681 5676 5669 5663 5658 5651 5644 5638 5631 5625 5618 5611 5605 5599 5595 5592 5589 5587 5586 5587 5586 5584 5582 5580 5578 5577 5576 5575 5577 5581 5585 5592 5596 5602 5608 5614 5623
5708 5703 5699 5693 5688 5683 5677 5671 5665 5659 5652 5646 5639 5633 5626 5621 5614 5607 5600 5594 5591 5588 5585 5583 5581 5580 5579 5577 5575 5574 5573 5573 5573 5572 5573 5576 5580 5584 5588 5593 5598 5606 5617
5706 5701 5697 5692 5685 5678 5672 5666 5660 5653 5647 5641 5635 5629 5622 5617 5610 5603 5595 5591 5588 5585 5583 5582 5580 5578 5575 5572 5569 5568 5567 5568 5569 5570 5572 5574 5576 5578 5581 5583 5589 5595 5605
5705 5701 5696 5689 5681 5674 5668 5661 5655 5648 5642 5636 5631 5625 5619 5613 5607 5599 5591 5587 5584 5582 5581 5579 5577 5575 5571 5566 5563 5562 5560 5561 5561 5563 5565 5567 5569 5572 5575 5578 5582 5588 5596
5705 5698 5691 5684 5677 5670 5664 5657 5650 5643 5638 5632 5626 5621 5615 5610 5605 5597 5589 5584 5581 5578 5575 5573 5572 5568 5564 5560 5556 5555 5554 5553 5553 5554 5556 5560 5563 5567 5571 5576 5580 5584 5590
5699 5691 5685 5678 5672 5667 5659 5652 5645 5638 5632 5627 5622 5617 5614 5610 5604 5597 5588 5580 5577 5573 5569 5567 5565 5559 5555 5552 5550 5549 5548 5545 5545 5547 5550 5554 5558 5562 5567 5572 5578 5583 5589
5690 5683 5677 5672 5666 5660 5652 5646 5640 5634 5628 5624 5620 5615 5611 5606 5601 5594 5585 5578 5572 5566 5565 5563 5557 5552 5549 5547 5545 5544 5541 5540 5541 5542 5545 5549 5553 5558 5562 5566 5573 5578 5584
5682 5676 5670 5664 5659 5654 5648 5643 5637 5632 5626 5621 5615 5609 5604 5600 5595 5589 5582 5574 5567 5562 5559 5557 5554 5551 5547 5545 5544 5543 5540 5540 5540 5541 5543 5545 5548 5551 5555 5560 5565 5571 5576
5675 5669 5663 5658 5653 5649 5645 5640 5635 5631 5624 5616 5610 5603 5597 5592 5586 5578 5573 5570 5565 5560 5553 5552 5551 5551 5549 5548 5547 5545 5544 5542 5539 5539 5539 5540 5542 5545 5549 5554 5559 5564 5569
5665 5660 5656 5652 5649 5646 5641 5637 5634 5628 5623 5615 5607 5599 5595 5588 5581 5574 5568 5562 5556 5549 5545 5548 5549 5548 5548 5547 5545 5545 5544 5542 5541 5539 5537 5537 5538 5541 5545 5549 5554 5559 5564
5656 5652 5648 5645 5643 5639 5635 5630 5626 5623 5616 5609 5602 5595 5588 5583 5577 5570 5564 5558 5551 5544 5542 5547 5547 5547 5546 5545 5544 5544 5543 5543 5541 5539 5537 5536 5536 5538 5541 5545 5550 5555 5560
5647 5643 5639 5636 5633 5631 5627 5624 5620 5615 5610 5606 5600 5591 5585 5579 5573 5567 5559 5552 5553 5549 5548 5549 5549 5548 5546 5544 5543 5543 5542 5541 5540 5538 5536 5536 5536 5537 5539 5543 5547 5552 5556
5634 5632 5631 5629 5626 5624 5620 5616 5613 5609 5604 5601 5599 5593 5584 5577 5569 5562 5554 5551 5555 5556 5554 5553 5550 5548 5546 5544 5543 5541 5540 5540 5539 5538 5536 5535 5535 5536 5538 5541 5545 5549 5553
5621 5620 5618 5618 5616 5614 5611 5608 5605 5601 5597 5595 5591 5588 5583 5575 5570 5566 5558 5556 5555 5555 5553 5552 5550 5547 5545 5543 5541 5540 5539 5539 5538 5537 5536 5535 5535 5535 5537 5540 5544 5547 5551
5607 5607 5605 5604 5604 5603 5600 5598 5595 5592 5590 5587 5585 5583 5576 5571 5569 5567 5563 5559 5556 5554 5552 5550 5548 5546 5543 5541 5539 5538 5538 5537 5537 5537 5536 5535 5535 5535 5537 5539 5543 5546 5550
5589 5589 5590 5589 5589 5588 5587 5586 5585 5582 5579 5577 5576 5574 5568 5566 5565 5563 5560 5558 5555 5552 5550 5547 5545 5543 5540 5538 5537 5536 5535 5535 5535 5536 5535 5535 5535 5535 5537 5539 5542 5544 5548
5570 5570 5571 5571 5572 5573 5574 5574 5574 5572 5571 5568 5567 5565 5563 5560 5559 5557 5556 5553 5551 5548 5547 5544 5541 5539 5537 5535 5533 5532 5531 5532 5532 5533 5533 5533 5534 5535 5537 5539 5541 5543 5547
5552 5553 5554 5555 5556 5558 5560 5560 5561 5561 5561 5560 5559 5558 5557 5554 5553 5552 5550 5548 5546 5544 5542 5539 5537 5535 5533 5530 5529 5529 5528 5527 5527 5529 5530 5531 5533 5535 5536 5538 5540 5543 5546
5535 5535 5536 5537 5539 5541 5543 5545 5546 5548 5550 5550 5551 5551 5550 5548 5546 5545 5544 5542 5541 5539 5538 5536 5534 5532 5529 5527 5525 5524 5522 5521 5520 5521 5525 5529 5531 5534 5535 5537 5540 5543 5545
5517 5516 5516 5517 5519 5521 5525 5528 5531 5535 5537 5539 5541 5541 5542 5541 5538 5537 5537 5536 5535 5534 5533 5532 5531 5529 5526 5524 5522 5520 5518 5517 5516 5516 5518 5524 5529 5532 5534 5536 5539 5541 5544